AirNav   Air Wisconsin Up To $57,000 Bonus
 
 544 users online  

1MN5 Molnau Airpark
Waconia, Minnesota, USA

GOING TO WACONIA?


FAA INFORMATION EFFECTIVE 16 JUNE 2022

Location

FAA Identifier: 1MN5
Lat/Long: 44-50-36.8640N 093-44-23.8650W
44-50.614400N 093-44.397750W
44.8435733,-93.7399625
(estimated)
Elevation: 1000 ft. / 305 m (estimated)
Variation: 04E (1985)
From city: 2 miles SE of WACONIA, MN
Time zone: UTC -5 (UTC -6 during Standard Time)
Zip code: 55387

Airport Operations

Airport use: Private use. Permission required prior to landing
Activation date: 03/1976
Control tower: no
ARTCC: MINNEAPOLIS CENTER
FSS: PRINCETON FLIGHT SERVICE STATION
Attendance: UNATNDD
Wind indicator: yes
Segmented circle: no
Landing fee: yes

Airport Communications

WX ASOS at FCM (12 nm E): PHONE 952-941-4156
WX AWOS-3 at GYL (15 nm W): 119.625 (320-864-5830)
WX AWOS-3PT at CFE (19 nm N): 120.45 (763-684-0762)

Airport Services

Runway Information

Runway E/W

Dimensions: 2700 x 100 ft. / 823 x 30 m
Surface: turf
RUNWAY E  RUNWAY W
Traffic pattern: leftleft

Airport Ownership and Management from official FAA records

Ownership: Privately-owned
Owner: RICHARD J. MOLNAU
8735 REITZ LAKE ROAD
WACONIA, MN 55387
Phone 952-442-4259
Manager: RICHARD J. MOLNAU
8735 REITZ LAKE ROAD
WACONIA, MN 55387
Phone 952-442-4259

Airport Operational Statistics

Aircraft based on the field: 16
Single engine airplanes: 16
    

Additional Remarks

FOR CD CTC MINNEAPOLIS ARTCC AT 651-463-5588.

Instrument Procedures

There are no published instrument procedures at 1MN5.

Some nearby airports with instrument procedures:

KFCM - Flying Cloud Airport (12 nm E)
KGYL - Glencoe Municipal Airport (15 nm W)
KCFE - Buffalo Municipal Airport (19 nm N)
KMIC - Crystal Airport (21 nm NE)
KMSP - Minneapolis-St Paul International/Wold-Chamberlain Airport (22 nm E)
 
Loc | Ops | Rwys | IFR | FBO | Links
Com | Nav | Svcs | Stats | Notes
Area around 1MN5 (Molnau Airpark)
 
Road maps at: MapQuest Bing Google
 
Aerial photo
No photo
 
Sectional chart

 
Airport distance calculator
Flying to Molnau Airpark? Find the distance to fly.

From to 1MN5

Sunrise and sunset
Times for 28-Jun-2022
 Local
(UTC-5)
 Zulu
(UTC)
Morning civil twilight04:5509:55
Sunrise05:3210:32
Sunset21:0402:04
Evening civil twilight21:4102:41

Current date and time
Zulu (UTC)  28-Jun-2022 07:23:25
Local (UTC-5)  28-Jun-2022 02:23:25
 
METAR
KFCM 
12nm E 
280653Z AUTO 21006KT 10SM CLR 18/09 A3009 RMK AO2 SLP185 T01830094
KGYL 
16nm W 
280655Z AUTO 21003KT 7SM SCT100 19/10 A3010 RMK AO2 LTG DSNT N T01900097
KCFE 
19nm N 
280655Z AUTO 22005KT 4SM VCTS RA HZ FEW008 SCT028 BKN046 19/13 A3010 RMK AO2 LTG DSNT N AND SE P0001
KMIC 
21nm NE 
280653Z AUTO 21006KT 10SM CLR 22/09 A3007 RMK AO2 SLP178 T02220089
KMSP 
22nm E 
280653Z 22009KT 10SM FEW100 22/08 A3009 RMK AO2 SLP184 T02220078 $
TAF
NOTAMs
Click for the latest NOTAMs
NOTAMs are issued by the DoD/FAA and will open in a separate window not controlled by AirNav.

 

 
 

Would you like to see your business listed on this page?

 If your business provides an interesting product or service to pilots, flight crews, aircraft, or users of the Molnau Airpark, you should consider listing it here.  To start the listing process, click on the button below
 
Add a business
 

Other Pages about Molnau Airpark

Update a link
 
Copyright © AirNav, LLC. All rights reserved. Privacy Policy  Contact